Location: Coll
(42.4728°N, 0.7714°E)
Time: 12:06:48
(UTC+00:00)

ADEOS - Pass Details

Date: 23 October 2020
Orbit: 793 x 794 km, 98.9° (Epoch: 30 November)

Event Time Altitude Azimuth Distance (km) Brightness Sun altitude
Rises 05:27:57 0° 4° (N) 3,305 6.8 -10.2°
Reaches altitude 10° 05:30:30 10° 354° (N) 2,371 5.9 -9.7°
Maximum altitude 05:35:02 31° 294° (WNW) 1,375 4.3 -8.9°
Drops below altitude 10° 05:39:32 10° 234° (SW) 2,358 5.6 -8.1°
Sets 05:42:05 0° 224° (SW) 3,283 6.4 -7.6°
